Regional Weather Roundup
Issued by NWS

Home | Current Version | Previous Version | Graphics & Text | Print | Product List | Glossary On
Versions: 1 2 3 4 5 6 7 8 9 10 11 12 13 14 15 16 17 18 19 20 21 22 23 24 25 26 27 28 29 30 31 32 33 34 35 36 37 38 39 40 41 42 43 44 45 46 47 48 49 50
106
ASUS45 KPSR 171610
RWRAZ

ARIZONA HOURLY REGIONAL WEATHER ROUNDUP
NATIONAL WEATHER SERVICE PHOENIX AZ
900 AM MST WED JAN 17 2018

NOTE: FAIR INDICATES FEW OR NO CLOUDS BELOW 12,000 FEET WITH NO
SIGNIFICANT WEATHER AND/OR OBSTRUCTIONS TO VISIBILITY.

AZZ001>003-036-171700-
NORTHWEST ARIZONA

CITY           SKY/WX    TMP DP  RH WIND       PRES   REMARKS
BULLHEAD CITY  SUNNY     54  39  58 VRB5      30.25R
KINGMAN        SUNNY     47  32  56 E6        30.29R
$$

AZZ004>008-015-016-018-171700-
NORTH CENTRAL ARIZONA

CITY           SKY/WX    TMP DP  RH WIND       PRES   REMARKS
GRAND CANYON   SUNNY     29  21  72 NE3       30.36R
WILLIAMS       SUNNY     32  25  74 S5        30.33R WCI  27
PRESCOTT       SUNNY     37  29  72 S3        30.32R
FLAGSTAFF      SUNNY     30  24  78 CALM      30.36R
PAYSON         SUNNY     37  19  48 VRB5      30.32S WCI  34
PAGE           SUNNY     38  21  50 CALM      30.38R
$$

AZZ009>014-017-171700-
NORTHEAST ARIZONA

CITY           SKY/WX    TMP DP  RH WIND       PRES   REMARKS
WINSLOW        MOSUNNY   26  14  60 SE5       30.38R WCI  20
SAINT JOHNS    CLOUDY    30  22  72 CALM      30.35R
WINDOW ROCK    PTSUNNY   27  21  78 CALM      30.36R
SHOW LOW       SUNNY     32  23  69 CALM      30.37R
$$

AZZ540-542>544-546-548-171700-
GREATER PHOENIX AREA

CITY           SKY/WX    TMP DP  RH WIND       PRES   REMARKS
PHOENIX        MOSUNNY   55  24  30 E12       30.23R
BUCKEYE        SUNNY     55  21  26 E14       30.23R
GLENDALE       MOSUNNY   52  32  46 CALM      30.26R
LUKE AFB       SUNNY     52  34  51 NE5       30.23R
DEER VALLEY    SUNNY     55  26  32 E5        30.23R
SCOTTSDALE     SUNNY     53  29  39 W3        30.24R
MESA-FALCON    SUNNY     55  19  24 NE9G17    30.25R
MESA-GATEWAY   SUNNY     52  23  32 CALM      30.26R
CHANDLER       SUNNY     54  25  32 E12       30.25R
$$

AZZ539-553-171700-
SOUTHWEST MARICOPA COUNTY AND PINAL COUNTY

CITY           SKY/WX    TMP DP  RH WIND       PRES   REMARKS
CASA GRANDE    NOT AVBL
GILA BEND      MOSUNNY   56  20  24 E18       30.19R
$$

AZZ503-504-507>509-171700-
SOUTHEAST ARIZONA

CITY           SKY/WX    TMP DP  RH WIND       PRES   REMARKS
TUCSON         SUNNY     51  19  28 SE21G31   30.24R
DAVIS-MONTHAN  SUNNY     48  18  30 SE21G29   30.22R
RYAN FIELD     SUNNY     52  21  30 E16       30.23
NOGALES        SUNNY     47  20  34 NE6       30.24R
SIERRA VISTA   SUNNY     39  17  40 E9        30.30S WCI  33
DOUGLAS        SUNNY     35  17  47 N7        30.33S WCI  29
SAFFORD        SUNNY     35  13  40 SE10      30.41R WCI  27
$$

AZZ532-171700-
SOUTHWEST ARIZONA

CITY           SKY/WX    TMP DP  RH WIND       PRES   REMARKS
YUMA           MOSUNNY   60  36  40 NE12      30.20R
$$

CAZ041-043-047-048-061-525>527-560>570-171700-
SOUTHERN CALIFORNIA

CITY           SKY/WX    TMP DP  RH WIND       PRES   REMARKS
DOWNTOWN L.A.  SUNNY     56  48  74 CALM      30.16R
L.A. AIRPORT   PTSUNNY   60  53  77 CALM      30.17R
SAN DIEGO      FOG       54  53  97 NW3       30.17R VSB 1/4
BURBANK        SUNNY     55  45  68 CALM      30.17R
ONTARIO        MOSUNNY   54  41  61 NE3       30.17R
RIVERSIDE      MOSUNNY   53  42  66 NE7       30.18R
PALM SPRINGS   SUNNY     58  41  53 CALM      30.22R
EL CENTRO NAS  MOSUNNY   51  31  46 CALM      30.22R
IMPERIAL       SUNNY     51  36  56 W5        30.20R
BLYTHE         SUNNY     52  38  58 S5        30.23R
NEEDLES        SUNNY     56  38  50 W3        30.25R
$$

NVZ020-UTZ003-171700-
SOUTHERN NEVADA-UTAH

CITY           SKY/WX    TMP DP  RH WIND       PRES   REMARKS
LAS VEGAS      PTSUNNY   50  37  61 SW3       30.29R
SALT LAKE CITY PTSUNNY   35  27  72 SE5       30.41R WCI  31
$$

NMZ009-TXZ055-171700-
NEW MEXICO-WEST TEXAS

CITY           SKY/WX    TMP DP  RH WIND       PRES   REMARKS
ALBUQUERQUE    PTSUNNY   23  14  68 W3        30.41R
EL PASO        PTSUNNY   28   8  43 N5        30.43S WCI  23
$$


........................KEY........................
SKY/WX - SKY CONDITION/WEATHER
TMP    - TEMPERATURE IN FAHRENHEIT
DP     - DEW POINT IN FAHRENHEIT
RH     - RELATIVE HUMIDITY IN PERCENT
WIND   - DIRECTION AND SPEED IN MILES PER HOUR (MPH)
VRB    - VARIABLE WIND DIRECTION
PRES   - MEAN SEA LEVEL PRESSURE IN INCHES OF MERCURY
         F - FALLING PRESSURE   R - RISING PRESSURE
         S - STEADY PRESSURE
VSB    - VISIBILITY IN MILES
HX     - HEAT INDEX IN FAHRENHEIT
WCI    - WIND CHILL INDEX IN FAHRENHEIT
TC     - TEMPERATURE IN CELSIUS WHICH IS ALSO KNOWN AS
         TEMPERATURE IN CENTIGRADE
AFB    - AIR FORCE BASE
         LUKE AFB IS LUKE AIR FORCE BASE
         DAVIS-MONTHAN IS DAVIS-MONTHAN AIR FORCE BASE
NAS    - NAVAL AIR STATION
         EL CENTRO NAS IS EL CENTRO NAVAL AIR STATION
N/A    - NOT AVAILABLE





USA.gov is the U.S. government's official web portal to all federal, state and local government web resources and services.